OBJECT CZ, 66761

Orbit data source: Space-Track

You're viewing an Uncataloged Satellite

Recently launched and/or uncataloged satellites may have evolving metadata. Metadata may include but not limited to: Owner, Maufacturer, Bus, Motor, and Mission.

OBJECT CZ, 66761 is a satellite in SSO that was launched on Fri, 28 Nov 2025 UTC via an FALCON 9 launch vehicle from the Air Force Western Test Range (AFWTR). Unknown objects in Earth's orbit typically refer to objects detected orbiting the Earth but have not yet been identified or cataloged. These objects could be anything from previously untracked satellites, spent rocket stages, debris from satellite collisions, or even natural meteoroids temporarily captured by Earth's gravity.

Loading next visibility...
Identifier
66761, 2025-276CZ
Orbit
SSO
Country
Flag of TBDTBD
Related business
None
Manufacturer
Unknown
Mission
Operational Commercial Sigint
Bus & Motor
Unknown
Mass
Unknown
Launch date (UTC)
2025-11-28 (2 months ago)
Launch vehicle
FALCON 9
Launch site
Air Force Western Test Range (AFWTR)
Object type
Unknown
Shape & HBR
Box + 2 Pan, 0.1 m
Radar Cross Section
0.080 m²

Expand to show TLE details & history
Last TLE update: 5 hours ago

TLE from 5 hours ago
0 OBJECT CZ
1 66761U 25276CZ  26035.15762655  .00012663  00000-0  59654-3 0  9991
2 66761  97.4325 111.0947 0001692  67.4667 292.6746 15.19648974 10231
Epoch: 2026-02-04T03:46Z
TLE epoch observation values (Epoch: 2026-02-04T03:46:58.933Z)
Latitude
-0.00013°
Longitude
-79.97907°
Altitude
509.541 km
Speed
7.609 km/s
True Right ascension
07h 24m 22s
True Declination
0° 00' 00"
Sunlit
Object was in full shadow at epoch
Visualization orbit readout
Latitude
Unknown
Longitude
Unknown
Altitude
Unknown
Speed
Unknown
Apparent Right ascension
Unknown
Apparent Declination
Unknown
Sunlit
N/A
Visualization observer readout
Local Sidereal Time
10:15:15
Azimuth
Unknown
Elevation
Unknown
Doppler factor
Unknown
Orbital elements
Apogee altitude
505.033 km
Perigee altitude
502.704 km
Semi-major axis
6,882.005 km
Eccentricity
0.00017
Inclination
97.4325°
RAAN
111.0947°
Arg. of periapsis
67.4667°
True anomaly
292.65671°
Mean anomaly
292.6746°
Eccentric anomaly
292.66565°
Mean motion
3.80164 °/min
Orbital period
94.7 mins
BSTAR
0.00059654
Loading maneuver chart data...
Computing Atmospheric mass density...
Loading historical data...
Loading historical data...
Loading historical data...
Loading historical data...
Loading historical data...
Loading historical data...
Loading historical data...

Documentation

Showing up to 5 results
|